User: anonymous   Login
Location: Cussy
(47.0410°N, 4.6412°E)
Time: 18:03:36
(UTC+00:00)
Language:

IRIDIUM 33 DEB - Orbit

View from above orbital plane
View from above orbital plane
View from above satellite
View from above satellite

Ground track
Ground track

The orbit data is extracted from the following two-line orbital elements,

1 34693U 97051KQ  21173.47385924  .00000765  00000-0  17151-3 0  9999
2 34693  86.3376 322.5637 0023500 281.5022 145.4585 14.55167676649412
Epoch (UTC): 22 June 2021 11:22:21
Eccentricity: 0.0023500
inclination: 86.3376°
perigee height: 692 km
apogee height: 725 km
right ascension of ascending node: 322.5637°
argument of perigee: 281.5022°
revolutions per day: 14.55167676
mean anomaly at epoch: 145.4585°
orbit number at epoch: 64941

The dashed part of the orbit path shows where the satellite is in the earth's shadow,  

DLR